Location: Muenchen
(48.1800°N, 11.5800°E)
Time: 14:13:38
(UTC+02:00)

ISS - All Passes

Search period start: 22 October 2014 00:00
Search period end: 31 October 2014 23:00
Orbit: 413 x 416 km, 51.6° (Epoch: 22 October)

Date Brightness Start Highest point End Pass type
(mag) Time Alt. Az. Time Alt. Az. Time Alt. Az.
22 Oct - 14:38:18 10° SSW 14:41:18 31° SE 14:44:19 10° E daylight
22 Oct - 16:14:32 10° W 16:17:51 65° NNW 16:21:12 10° ENE daylight
22 Oct - 17:51:38 10° WNW 17:54:52 44° N 17:58:06 10° ENE daylight
22 Oct - 19:28:26 10° WNW 19:31:47 89° NNE 19:35:08 10° ESE visible
22 Oct - 21:05:39 10° W 21:08:09 20° SW 21:10:39 10° S visible
23 Oct - 13:49:49 10° S 13:52:22 21° SE 13:54:56 10° E daylight
23 Oct - 15:25:24 10° WSW 15:28:45 87° NNW 15:32:06 10° ENE daylight
23 Oct - 17:02:27 10° WNW 17:05:40 44° N 17:08:54 10° ENE daylight
23 Oct - 18:39:20 10° WNW 18:42:40 67° NNE 18:46:00 10° ESE visible
23 Oct - 20:16:14 10° W 20:19:13 30° SW 20:22:11 10° SSE visible
24 Oct - 13:01:49 10° SSE 13:03:27 13° SE 13:05:06 10° ESE daylight
24 Oct - 14:36:19 10° SW 14:39:38 66° SSE 14:42:57 10° ENE daylight
24 Oct - 16:13:12 10° W 16:16:27 47° N 16:19:42 10° ENE daylight
24 Oct - 17:50:11 10° WNW 17:53:29 54° NNE 17:56:46 10° E daylight
24 Oct - 19:26:57 10° WNW 19:30:11 46° SSW 19:33:24 10° SE visible
25 Oct - 13:47:20 10° SW 13:50:31 43° SSE 13:53:43 10° ENE daylight
25 Oct - 15:23:54 10° W 15:27:12 55° NNW 15:30:30 10° ENE daylight
25 Oct - 17:00:59 10° WNW 17:04:14 46° N 17:07:29 10° E daylight
25 Oct - 18:37:44 10° WNW 18:41:04 70° SSW 18:44:23 10° ESE visible
25 Oct - 20:15:26 10° WSW 20:17:16 14° SW 20:19:05 10° S visible
26 Oct - 11:58:32 10° SSW 12:01:26 28° SE 12:04:21 10° E daylight
26 Oct - 13:34:37 10° WSW 13:37:56 70° NNW 13:41:17 10° ENE daylight
26 Oct - 15:11:42 10° WNW 15:14:55 44° N 15:18:09 10° ENE daylight
26 Oct - 16:48:30 10° WNW 16:51:51 83° NNE 16:55:12 10° ESE daylight
26 Oct - 18:25:36 10° W 18:28:15 22° SW 18:30:53 10° SSE visible
27 Oct - 11:09:59 10° S 11:12:22 18° SE 11:14:45 10° E daylight
27 Oct - 12:45:20 10° WSW 12:48:40 87° SSE 12:52:02 10° ENE daylight
27 Oct - 14:22:21 10° WNW 14:25:34 44° N 14:28:48 10° ENE daylight
27 Oct - 15:59:15 10° WNW 16:02:34 63° NNE 16:05:53 10° E daylight
27 Oct - 17:36:05 10° W 17:39:09 33° SW 17:42:11 10° SSE visible
28 Oct - 10:22:06 10° SSE 10:23:18 12° SE 10:24:30 10° ESE daylight
28 Oct - 11:56:08 10° SW 11:59:25 60° SSE 12:02:43 10° ENE daylight
28 Oct - 13:32:56 10° W 13:36:11 49° N 13:39:27 10° ENE daylight
28 Oct - 15:09:56 10° WNW 15:13:13 51° N 15:16:29 10° E daylight
28 Oct - 16:46:41 10° WNW 16:49:57 51° SSW 16:53:11 10° SE daylight
29 Oct - 11:07:03 10° SW 11:10:10 39° SSE 11:13:18 10° ENE daylight
29 Oct - 12:43:30 10° W 12:46:47 58° NNW 12:50:06 10° ENE daylight
29 Oct - 14:20:34 10° WNW 14:23:48 45° N 14:27:02 10° E daylight
29 Oct - 15:57:19 10° WNW 16:00:39 77° SSW 16:03:59 10° ESE daylight
29 Oct - 17:34:48 10° W 17:36:54 16° SW 17:39:00 10° S visible
30 Oct - 10:18:09 10° SSW 10:20:56 25° SE 10:23:45 10° E daylight
30 Oct - 11:54:03 10° WSW 11:57:23 75° NNW 12:00:44 10° ENE daylight
30 Oct - 13:31:07 10° WNW 13:34:20 43° N 13:37:33 10° ENE daylight
30 Oct - 15:07:56 10° WNW 15:11:17 77° NNE 15:14:37 10° ESE daylight
30 Oct - 16:44:56 10° W 16:47:43 24° SW 16:50:29 10° SSE daylight
31 Oct - 09:29:34 10° S 09:31:43 16° SE 09:33:53 10° E daylight
31 Oct - 11:04:39 10° WSW 11:07:59 79° SSE 11:11:19 10° ENE daylight
31 Oct - 12:41:36 10° W 12:44:50 45° N 12:48:04 10° ENE daylight
31 Oct - 14:18:31 10° WNW 14:21:50 59° NNE 14:25:08 10° E daylight
31 Oct - 15:55:19 10° WNW 15:58:26 38° SW 16:01:33 10° SE daylight
